This demonstration page uses our WeatherBlox Daily Observations layout. Learn more.

Left ArrowRight Arrow

41.55636, -103.73856

Hourly Observations for October 23, 2018

Temp ( °F °C ) Dew Point ( °F °C ) Humidity (%) Winds ( mph kmh ) Pressure ( in mb ) Visibility ( mi km ) Precip ( " mm )
12:58 am 00:58 Mostly Cloudy 44 6.9 36 2.4 73 73 SSE 7 11 30.20 1023 10 16 N/A
1:58 am 01:58 Partly Cloudy 45 7 33 0.8 65 65 SSE 8 13 30.22 1023 10 16 N/A
2:58 am 02:58 Clear 40 4.3 33 0.4 76 76 SSE 10 17 30.21 1023 10 16 N/A
3:58 am 03:58 Clear 39 3.9 32 0.1 77 77 SE 9 15 30.21 1023 10 16 N/A
4:58 am 04:58 Clear 37 3 31 -0.3 79 79 SSE 8 13 30.22 1023 10 16 N/A
5:58 am 05:58 Clear 37 2.5 32 -0.1 83 83 SSE 7 11 30.24 1024 10 16 N/A
6:58 am 06:58 Partly Cloudy 38 3.3 33 0.7 83 83 SSE 9 15 30.24 1024 10 16 N/A
7:58 am 07:58 Mostly Cloudy 41 4.9 36 2.2 83 83 SSE 14 22 30.24 1024 10 16 N/A
8:58 am 08:58 Sunny 43 6.1 38 3.3 82 82 S 15 24 30.25 1024 10 16 N/A
9:58 am 09:58 Mostly Sunny 49 9.5 41 5.1 74 74 S 16 26 30.23 1024 10 16 N/A
10:58 am 10:58 Mostly Cloudy 51 10.8 42 5.8 71 71 S 18 30 30.22 1023 10 16 N/A
11:58 am 11:58 Cloudy 54 12.2 44 6.5 68 68 S 21 33 30.21 1023 10 16 N/A
12:58 pm 12:58 Mostly Sunny 57 13.7 43 6.3 61 61 S 20 31 30.16 1022 10 16 N/A
1:58 pm 13:58 Partly Cloudy 60 15.7 43 6.2 53 53 S 18 30 30.14 1021 10 16 N/A
2:58 pm 14:58 Mostly Sunny 61 15.9 43 5.9 52 52 S 20 31 30.14 1021 10 16 N/A
3:58 pm 15:58 Partly Cloudy 59 14.9 43 6.3 57 57 S 21 33 30.13 1020 10 16 N/A
4:58 pm 16:58 Sunny 58 14.5 44 6.4 59 59 SSE 15 24 30.12 1020 10 16 N/A
5:58 pm 17:58 Sunny 56 13.3 44 6.8 65 65 SSE 17 28 30.12 1020 10 16 N/A
6:58 pm 18:58 Mostly Clear 53 11.5 44 6.6 72 72 SSE 12 19 30.14 1021 10 16 N/A
7:58 pm 19:58 Mostly Clear 51 10.7 44 6.8 77 77 S 12 19 30.14 1021 10 16 N/A
8:58 pm 20:58 Mostly Cloudy 50 9.8 44 6.7 81 81 SSE 14 22 30.12 1020 10 16 N/A
9:58 pm 21:58 Clear 49 9.2 44 6.9 86 86 S 12 19 30.11 1020 10 16 N/A
10:58 pm 22:58 Clear 48 8.9 45 7 88 88 S 13 20 30.08 1019 10 16 N/A
11:58 pm 23:58 Clear 47 8.2 44 6.7 90 90 S 14 22 30.07 1018 10 16 N/A

Powered by AerisWeather